Regional Weather Roundup
Issued by NWS Portland, ME

Home | Current Version | Previous Version | Text Only | Print | Product List | Glossary On
Versions: 1 2 3 4 5 6 7 8 9 10 11 12 13 14 15 16 17 18 19 20 21 22 23 24 25 26 27 28 29 30 31 32 33 34 35 36 37 38 39 40 41 42
000
ASUS41 KGYX 210705
RWRGYX
WEATHER ROUNDUP FOR MAINE AND NEW HAMPSHIRE
NATIONAL WEATHER SERVICE GRAY ME
300 AM EDT THU AUG 21 2014

MEZ002-005-006-010-012-015-018-020-021-024-026-027-029-210800-
MAINE

CITY           SKY/WX    TMP DP  RH WIND       PRES   REMARKS
PORTLAND       CLEAR     56  53  90 W3        30.07S
SANFORD        CLEAR     48  43  81 SW3       30.08S
BAR HARBOR     CLEAR     55  55 100 CALM      30.07R
WISCASSET      CLEAR     53  51  93 CALM      30.08S
ROCKLAND       CLEAR     55  54  94 CALM      30.05S
FRYEBURG       FAIR      51  50  96 CALM      30.09R
LEWISTONAUBURN CLEAR     54  48  82 CALM      30.07S
AUGUSTA        CLEAR     58  56  93 CALM      30.07S
WATERVILLE     CLEAR     55  54  94 CALM      30.03F
BANGOR         PTCLDY    60  57  89 CALM      30.07R
GREENVILLE       N/A     60  55  83 CALM      30.08S
MILLINOCKET    PTCLDY    59  56  89 CALM      30.08R
HOULTON        CLEAR     53  51  93 CALM      30.07S
PRESQUE ISLE   CLEAR     55  52  88 CALM      30.08S
FRENCHVILLE    CLEAR     57  54  89 N7        30.10S
CARIBOU        CLEAR     59  55  87 CALM      30.09S
$$

NHZ002-005-008-009-011-012-014-210800-
NEW HAMPSHIRE

CITY           SKY/WX    TMP DP  RH WIND       PRES   REMARKS
PORTSMOUTH     MOCLDY    56  55  96 NW2       30.07R
ROCHESTER      FAIR      53  50  89 NW5       30.07S
NASHUA         PTCLDY    56  54  93 CALM      30.08S
MANCHESTER     MOCLDY    58  54  86 N3        30.06S
CONCORD        PTCLDY    53  52  96 CALM      30.07S
LACONIA        MOCLDY    55  52  88 CALM      30.07S
PLYMOUTH       FAIR      54  54 100 CALM      30.08S FOG
BERLIN         FOG       51  51 100 CALM      30.10S VSB 1/4
WHITEFIELD     MOCLDY    53  51  93 CALM      30.09R
JAFFREY        MOCLDY    58  54  86 CALM      30.09S
LEBANON        CLOUDY    62  58  86 CALM      30.06R
MT WASHINGTON  MOCLDY    48  36  61 SW2         N/A
$$

VTZ005-007-008-210800-
VERMONT

CITY           SKY/WX    TMP DP  RH WIND       PRES   REMARKS
ST JOHNSBURY     N/A     58  56  93 MISG      30.06S
MONTPELIER     CLOUDY    60  58  92 E3        30.10S
BURLINGTON     CLOUDY    69  58  67 S6        30.01R
$$

MAZ007-012-024-CTZ003-RIZ002-NYZ038-NYZ072-210800-
SOUTHERN NEW ENGLAND AND NY

CITY           SKY/WX    TMP DP  RH WIND       PRES   REMARKS
BOSTON         MOCLDY    63  60  90 CALM      30.07R
WORCESTER      MOCLDY    62  53  72 CALM      30.08S
NANTUCKET      CLOUDY    64  62  93 NE7       30.02R
PROVIDENCE     CLEAR     60  57  89 N5        30.06S
HARTFORD       LGT RAIN  66  61  84 CALM      30.05R
ALBANY         CLOUDY    68  65  90 E6        30.01S
NEW YORK CITY  CLOUDY    73  61  65 SW6       30.03S
$$

ANZ081-ANZ082-ANZ150-NHZ014-MEZ023>029-210800-
COASTAL MARINE OBSERVATIONS

STATION/POSITION TIME  TEMP    WIND        PRES    WAVE
                       AIR SEA DIR/SP/G            HT/PER
                 (UTC) (F)     (DEG/KT/KT) (MB)    (FT/S)
MATINICUS ROCK   0600          300/  5/  6 1017.4F
PORTLAND WX BUOY 0650   62 63  310/  2/  2 1018.3R   1/11
WELLS            0600   55 62  330/  3/  3 1017.2S
ISLE OF SHOALS   0600   63     360/  1/  2 1017.6F
JEFFREYS LEDGE   0621      67                N/A     1/ 7
CASHES LEDGE BUO 0650   65 67              1017.6S   1/ 7
$$

.............KEY..............
   WCI - WIND CHILL
   TC  - TEMPERATURE IN CELSIUS
   VSB - VISIBILITY IN MILES
   HX  - HEAT INDEX
   FAIR- INDICATES FEW OR NO CLOUDS BELOW 12,000 FT, WITH NO
         SIGNIFICANT WEATHER AND/OR OBSTRUCTIONS TO VISIBILITY.




USA.gov is the U.S. government's official web portal to all federal, state and local government web resources and services.